Flag for France Weather past 2 weeks in Douai, France

Now
61 °F

Sunny.


Feels Like: 61 °F
Forecast: 52 / 83 °F
Wind: 6 mph from Northwest

Location: Lille Airport

Current Time: Aug 28, 2015 at 9:59:04 PM

Latest Report: Aug 28, 2015 at 9:30 PM


Visibility: 10 mi

Pressure: 30.12 "Hg

Humidity: 68%

Dew point: 50 °F

Location of DouaiLocation

Historic Weather in Douai — Graph

°F

Douai temperature yesterday

Maximum temperature yesterday: 68 °F (at 12:00 AM)
Minimum temperature yesterday: 57 °F (at 3:30 PM)
Average temperature yesterday: 60 °F

Past Weeks' High & Low Weather Summary

 TemperatureHumidityPressure
High84 °F (Aug 22, 2:30 PM)100% (Aug 13, 11:30 PM)30.21 "Hg (Aug 13, 11:30 PM)
Low48 °F (Aug 17, 6:30 AM)32% (Aug 22, 1:00 PM)29.39 "Hg (Aug 24, 6:30 PM)
Average64 °F76%29.91 "Hg
* Reported Aug 13 9:00 PM — Aug 28 9:00 PM, Douai, Weather by CustomWeather, © 2015

Note: Actual official high and low records may vary slightly from our data, if they occured in-between our weather recording intervals... More about our weather records

Advertising

Douai weather history for previous 24 hours

 ConditionsComfort  
Time TempWeatherWind HumidityBarometerVisibility
9:00 PM
Fri, Aug 28
63 °FSunny.5 mph64%30.12 "Hg10 mi
8:30 PM64 °FSunny.7 mph56%30.12 "Hg10 mi
8:00 PM66 °FSunny.10 mph56%30.12 "Hg10 mi
7:30 PM70 °FSunny.9 mph50%30.09 "Hg10 mi
7:00 PM70 °FScattered clouds.9 mph46%30.09 "HgN/A
6:30 PM70 °FPassing clouds.9 mph46%30.09 "HgN/A
6:00 PM70 °FSunny.10 mph50%30.09 "Hg10 mi
5:30 PM70 °FBroken clouds.7 mph50%30.09 "HgN/A
5:00 PM70 °FBroken clouds.9 mph53%30.09 "HgN/A
4:30 PM70 °FBroken clouds.7 mph53%30.09 "HgN/A
4:00 PM70 °FPassing clouds.7 mph50%30.09 "HgN/A
3:30 PM70 °FScattered clouds.5 mph53%30.09 "HgN/A
3:00 PM68 °FPartly sunny.6 mph56%30.09 "HgN/A
2:30 PM68 °FBroken clouds.7 mph53%30.07 "HgN/A
2:00 PM68 °FPassing clouds.7 mph53%30.09 "HgN/A
1:30 PM68 °FPassing clouds.6 mph60%30.07 "HgN/A
1:00 PM66 °FPartly sunny.7 mph64%30.07 "HgN/A
12:30 PM66 °FScattered clouds.5 mph68%30.07 "HgN/A
12:00 PM64 °FPartly sunny.3 mph68%30.07 "HgN/A
11:30 AM63 °FCloudy.3 mph77%30.07 "HgN/A
11:00 AM63 °FPartly sunny.2 mph83%30.04 "HgN/A
10:30 AM61 °FScattered clouds.2 mph88%30.04 "HgN/A
10:00 AM57 °FPartly sunny.3 mph100%30.04 "HgN/A
9:30 AM55 °FPartly sunny.3 mph100%30.04 "HgN/A
9:00 AM54 °FLow clouds.3 mph100%30.01 "Hg4 mi
8:30 AM54 °FDense fog.5 mph94%30.01 "Hg1 mi
8:00 AM52 °FFog.3 mph100%30.01 "Hg1 mi
7:30 AM52 °FFog.5 mph100%29.98 "Hg1 mi
7:00 AM52 °FFog.5 mph100%29.98 "Hg1 mi
6:30 AM52 °FDense fog.5 mph100%29.98 "Hg1 mi
6:00 AM52 °FPassing clouds.3 mph94%29.98 "Hg4 mi
5:00 AM52 °FClear.2 mph100%29.95 "Hg5 mi
4:30 AM52 °FClear.No wind100%29.95 "Hg6 mi
4:00 AM52 °FClear.2 mph94%29.95 "Hg10 mi
3:30 AM52 °FClear.2 mph100%29.92 "Hg10 mi
3:00 AM54 °FClear.2 mph94%29.92 "Hg10 mi
2:30 AM54 °FClear.3 mph94%29.92 "Hg10 mi
2:00 AM54 °FClear.3 mph94%29.92 "Hg10 mi
1:30 AM55 °FClear.5 mph94%29.92 "Hg10 mi
1:00 AM55 °FPassing clouds.5 mph94%29.92 "HgN/A
12:30 AM55 °FPassing clouds.5 mph100%29.92 "HgN/A
12:00 AM57 °FClear.6 mph94%29.92 "Hg10 mi
11:30 PM
Thu, Aug 27
57 °FClear.6 mph94%29.89 "Hg10 mi
11:00 PM57 °FClear.6 mph94%29.89 "Hg10 mi
10:30 PM57 °FClear.5 mph94%29.89 "Hg10 mi
10:00 PM57 °FClear.5 mph94%29.89 "Hg10 mi
9:30 PM57 °FSunny.5 mph94%29.86 "Hg10 mi
9:00 PM57 °FOvercast.3 mph94%29.86 "HgN/A
Weather by CustomWeather, © 2015

See weather overviewHow to use our weather pages